Home > Weather > Worb > Past weeks

Flag for Switzerland Past Weather in Worb, Bern, Switzerland — Yesterday and Last 2 Weeks

Now
64 °F

Broken clouds.


Feels Like: 64 °F
Forecast: 54 / 67 °F
Wind: 9 mph from South

Location: Bern / Belp

Current Time: May 28, 2016 at 1:56:02 PM

Latest Report: May 28, 2016 at 1:20 PM


Visibility: N/A

Pressure: 29.95 "Hg (27.97 "Hg at 583m altitude)

Humidity: 83%

Dew Point: 59 °F

Location of WorbLocation

Past Weather in Worb — Graph

°F

Worb Temperature Yesterday

Maximum temperature yesterday: 81 °F (at 5:50 PM)
Minimum temperature yesterday: 54 °F (at 1:50 AM)
Average temperature yesterday: 67 °F

High & Low Weather Summary for the Past Weeks

 TemperatureHumidityPressure
High81 °F (May 27, 5:50 PM)100% (May 13, 7:50 PM)30.18 "Hg (May 13, 7:50 PM)
Low36 °F (May 16, 4:50 AM)34% (May 21, 4:50 PM)29.59 "Hg (May 13, 12:20 PM)
Average54 °F80%29.99 "Hg
* Reported May 13 12:20 PM — May 28 12:20 PM, Worb, Weather by CustomWeather, © 2016

Note: Actual official high and low records may vary slightly from our data, if they occured in-between our weather recording intervals... More about our weather records

Advertising

Worb Weather History for the Previous 24 Hours

Scroll right to see more
 ConditionsComfort  
Time TempWeatherWind HumidityBarometerVisibility
12:20 PM
Sat, May 28
64 °FPartly sunny.13 mph88%29.95 "HgN/A
11:50 AM63 °FPartly sunny.10 mph94%29.95 "HgN/A
11:20 AM63 °FBroken clouds.7 mph100%29.98 "HgN/A
10:50 AM61 °FSprinkles. Broken clouds.6 mph100%29.98 "HgN/A
10:20 AM61 °FSprinkles. Broken clouds.2 mph100%29.98 "Hg5 mi
9:50 AM61 °FSprinkles. Broken clouds.2 mph94%30.01 "HgN/A
9:20 AM59 °FSprinkles. Broken clouds.7 mph100%29.98 "HgN/A
8:50 AM59 °FSprinkles. Partly sunny.6 mph100%29.98 "Hg4 mi
8:20 AM59 °FSprinkles. Broken clouds.8 mph100%29.98 "Hg4 mi
7:50 AM59 °FThundershowers. Partly sunny.6 mph100%30.01 "Hg3 mi
7:20 AM59 °FSprinkles. Partly sunny.5 mph100%29.98 "HgN/A
6:50 AM59 °FDrizzle. Partly sunny.6 mph100%29.98 "HgN/A
6:20 AM59 °FLight rain. Passing clouds.7 mph100%29.98 "HgN/A
5:50 AM61 °FLight rain. Passing clouds.9 mph100%29.98 "Hg5 mi
5:20 AM61 °FThundershowers. Partly cloudy.9 mph100%29.98 "HgN/A
4:50 AM61 °FMostly cloudy.5 mph100%29.98 "HgN/A
4:20 AM61 °FOvercast.2 mph100%30.01 "HgN/A
3:50 AM61 °FPartly cloudy.3 mph100%30.01 "HgN/A
3:20 AM61 °FPartly cloudy.2 mph100%30.01 "HgN/A
2:50 AM61 °FLight rain. Partly cloudy.2 mph100%30.01 "HgN/A
2:20 AM63 °FLight rain. Passing clouds.6 mph94%30.01 "HgN/A
1:50 AM63 °FLight rain. Partly cloudy.5 mph100%29.98 "HgN/A
1:20 AM63 °FThundershowers. Partly cloudy.3 mph100%29.95 "Hg4 mi
12:50 AM64 °FThundershowers. Partly cloudy.6 mph94%29.95 "HgN/A
12:20 AM64 °FThundershowers. Partly cloudy.5 mph100%29.95 "HgN/A
11:50 PM
Fri, May 27
66 °FStrong thunderstorms. Partly cloudy.6 mph94%29.95 "Hg2 mi
11:20 PM64 °FPartly cloudy.5 mph94%29.95 "HgN/A
10:50 PM64 °FPassing clouds.3 mph88%29.95 "HgN/A
10:20 PM64 °FPassing clouds.2 mph88%29.95 "HgN/A
9:50 PM68 °FPassing clouds.1 mph83%29.95 "HgN/A
9:20 PM70 °FScattered clouds.2 mph78%29.92 "HgN/A
8:50 PM72 °FScattered clouds.3 mph73%29.92 "HgN/A
8:20 PM75 °FPassing clouds.5 mph54%29.92 "HgN/A
7:50 PM79 °FScattered clouds.5 mph48%29.92 "HgN/A
7:20 PM81 °FScattered clouds.3 mph45%29.92 "HgN/A
6:50 PM81 °FPassing clouds.6 mph45%29.92 "HgN/A
6:20 PM81 °FPassing clouds.5 mph51%29.92 "HgN/A
5:50 PM81 °FPassing clouds.2 mph45%29.92 "HgN/A
5:20 PM79 °FPassing clouds.8 mph48%29.92 "HgN/A
4:50 PM79 °FSunny.5 mph45%29.92 "Hg10 mi
4:20 PM79 °FPassing clouds.8 mph45%29.95 "HgN/A
3:50 PM79 °FPassing clouds.6 mph48%29.95 "HgN/A
3:20 PM79 °FPassing clouds.7 mph48%29.95 "HgN/A
2:50 PM79 °FPassing clouds.6 mph48%29.95 "HgN/A
2:20 PM79 °FPassing clouds.5 mph48%29.95 "HgN/A
1:50 PM77 °FPassing clouds.3 mph51%29.95 "HgN/A
1:20 PM77 °FSunny.3 mph44%29.95 "Hg10 mi
Weather by CustomWeather, © 2016

See weather overviewHow to use our weather pages